Temperature
20 20 20 19 19 19 19 19 19 18 18 18 18 18 18 18 18 17 17 17 17 17 17 17 17 17 17 17 16 17 16 16 16 16 16 16 16 16 16 16 16 16 16
20 20 20 19 19 19 19 19 19 19 18 18 18 18 18 18 18 17 17 17 17 17 17 17 17 16 16 16 16 16 16 16 16 16 16 16 16 16 16 16 16 16 16
20 20 20 19 19 19 19 19 19 18 18 18 18 18 18 17 17 17 17 17 17 17 17 17 16 16 16 16 16 16 16 16 16 16 16 16 15 15 15 16 16 16 16
20 20 19 19 19 19 19 18 18 18 18 18 18 18 18 17 17 17 17 17 17 17 16 16 16 16 16 16 16 16 15 15 15 15 15 15 15 15 15 15 15 15 15
20 19 19 19 18 18 18 18 18 18 18 18 18 17 17 17 17 17 17 17 17 16 16 16 16 16 16 15 15 15 15 15 15 15 15 15 15 15 15 15 15 15 15
19 19 19 18 18 18 18 18 18 18 18 17 17 17 17 17 17 17 17 17 17 16 16 16 16 16 15 15 15 15 15 15 15 15 15 15 15 14 14 14 14 14 14
19 19 18 18 18 18 18 17 17 17 17 17 17 17 17 17 17 17 17 17 17 16 16 16 16 15 15 15 15 15 15 15 14 14 14 14 14 14 14 14 14 14 14
19 18 18 18 18 17 17 17 17 17 17 17 17 17 17 16 16 16 16 16 16 16 16 16 15 15 15 15 15 15 15 14 14 14 14 14 14 14 14 14 13 14 14
18 18 18 18 18 17 17 17 17 17 17 17 17 16 16 16 16 16 16 16 16 16 16 15 15 15 15 15 15 15 14 14 14 14 14 14 14 14 14 13 13 13 13
18 18 18 18 17 17 17 17 17 16 16 16 16 16 16 16 16 16 15 15 15 15 15 15 15 15 15 14 14 14 14 14 14 14 14 14 14 14 13 13 13 13 13
18 18 18 18 17 17 17 17 16 16 16 16 16 16 16 16 15 15 15 15 15 15 15 15 15 14 14 14 14 14 14 14 14 13 13 13 13 13 13 13 13 13 13
17 17 17 17 17 17 17 16 16 16 16 16 16 15 15 15 15 15 15 15 15 14 15 15 14 14 14 14 14 13 13 13 13 13 13 13 13 13 13 13 13 13 13
17 17 17 17 17 16 16 16 16 15 15 15 15 15 15 15 15 15 15 15 14 14 14 14 14 14 14 13 13 13 13 13 13 13 13 13 13 13 13 13 13 13 12
16 16 16 16 16 16 16 16 15 15 15 15 15 15 15 15 15 14 14 14 14 14 14 14 14 14 13 13 13 13 13 13 12 12 12 13 13 13 12 12 12 12 12
16 16 16 16 16 16 15 15 15 15 15 15 15 14 14 14 14 14 14 14 14 14 13 13 13 13 13 13 13 13 12 12 12 12 12 12 12 12 12 12 12 12 12
15 15 16 15 15 15 15 15 15 15 14 14 14 14 14 14 14 13 13 13 13 13 13 13 13 13 12 12 12 12 12 12 12 12 12 12 12 12 12 12 11 11 11
15 15 15 15 15 15 14 14 14 14 14 14 14 14 13 13 13 13 13 13 13 13 12 12 12 12 12 12 11 11 11 11 11 11 11 11 11 11 11 11 11 11 10
14 14 14 14 14 14 14 14 13 13 13 13 13 13 13 13 13 13 13 13 12 12 12 12 12 11 11 11 11 11 11 11 11 11 11 11 10 10 10 10 10 10 10
14 14 14 14 14 14 13 13 13 13 12 12 13 13 13 13 12 12 12 12 12 12 12 11 11 11 11 11 11 11 10 10 10 10 10 10 10 10 10 10 9 9 9
13 13 13 13 13 13 13 12 12 12 12 12 12 12 12 12 12 12 12 11 11 11 11 11 11 11 11 10 10 10 10 10 10 10 10 9 9 9 9 9 9 9 9
13 13 13 12 12 12 12 12 12 11 11 11 11 11 11 11 11 11 11 11 11 11 11 10 10 10 10 10 10 9 9 9 9 9 9 9 9 9 9 8 8 8 8
12 12 12 12 12 11 11 11 11 11 11 11 11 11 11 10 10 10 10 10 10 10 10 10 10 9 9 9 9 9 9 9 9 9 8 8 8 8 8 8 8 7 7
12 11 11 11 11 11 11 11 11 10 10 10 10 10 10 10 10 10 10 10 10 9 9 9 9 9 9 9 8 8 8 8 8 8 8 8 8 8 7 7 7 7 7
11 11 11 11 10 10 10 10 10 10 10 10 10 10 10 9 9 9 9 9 9 9 9 9 9 8 8 8 8 8 8 8 8 8 8 8 7 7 7 7 7 7 7
11 10 10 10 10 10 10 10 10 10 9 9 9 9 9 9 9 9 9 9 8 8 8 8 8 8 8 8 8 8 8 7 7 7 7 7 7 7 7 7 6 6 6
10 10 10 10 10 9 9 9 9 9 9 9 9 9 8 8 8 8 8 8 8 8 8 8 8 8 8 8 7 7 7 7 7 7 7 7 7 6 6 6 6 6 6
Wind_Speed
5 4 4 4 4 4 4 4 4 3 3 3 3 3 3 3 3 2 2 2 2 2 2 2 3 2 2 2 1 2 2 2 3 3 2 2 2 2 2 2 3 4 4
5 4 4 3 3 3 4 4 3 3 3 4 3 3 3 3 3 3 3 2 3 3 3 2 3 2 2 2 1 2 2 2 3 4 3 2 2 3 2 2 2 3 3
4 4 3 3 3 4 4 3 3 3 3 3 3 3 3 3 3 3 3 3 3 3 3 3 3 3 3 2 2 2 2 2 2 3 3 2 2 2 2 2 2 2 3
3 3 4 4 4 4 4 3 3 3 3 3 4 4 4 4 4 4 4 3 3 3 3 4 4 4 4 4 3 3 2 2 1 2 2 2 2 2 1 2 2 2 2
3 3 4 4 3 3 3 3 3 3 4 3 3 3 3 4 4 4 4 4 4 4 3 4 4 5 5 4 3 3 3 2 2 2 2 2 2 1 2 2 2 2 3
3 3 3 3 3 3 3 3 3 4 3 3 3 3 3 3 3 5 4 4 4 4 4 4 4 4 5 5 5 5 4 4 3 3 3 4 4 3 2 2 1 1 2
3 2 2 2 3 3 3 3 3 4 3 3 3 3 3 3 3 4 5 4 4 4 4 3 3 3 2 3 3 4 5 6 6 5 5 5 4 4 3 3 3 3 3
2 2 2 2 3 3 2 3 3 3 3 3 3 3 3 3 3 3 3 3 3 3 3 4 4 4 3 2 2 3 4 4 6 6 6 6 5 4 4 4 3 3 3
2 3 3 3 3 3 4 4 3 2 3 3 3 4 4 3 2 2 3 2 3 3 3 3 3 4 4 2 3 3 4 5 5 6 6 7 6 6 4 2 2 2 3
3 3 2 3 4 4 4 4 3 3 3 3 2 3 3 3 3 3 4 2 3 3 3 3 4 4 4 3 3 4 5 5 4 3 3 4 5 5 6 6 5 4 3
2 2 2 2 3 4 3 3 3 3 2 2 2 2 2 3 3 4 4 3 4 4 3 3 3 5 5 4 4 4 6 5 3 3 3 3 3 3 4 5 5 5 5
1 1 2 2 2 1 1 2 2 2 2 2 2 2 2 2 3 4 5 6 5 4 4 4 4 4 4 3 3 4 5 3 2 2 3 4 4 4 4 5 6 6 6
0 1 2 1 1 1 1 2 1 2 2 2 2 3 3 3 3 4 5 6 6 4 4 4 3 3 3 2 3 4 3 2 2 3 4 5 5 5 4 3 3 4 5
1 1 1 0 0 0 0 1 2 2 3 3 3 3 3 3 3 3 3 3 4 4 4 3 3 3 2 2 3 2 2 3 3 4 5 5 4 3 3 3 3 3 3
1 0 0 0 1 0 0 1 3 3 4 4 4 4 4 4 5 4 3 3 3 3 2 1 1 1 1 2 2 2 2 2 3 4 4 4 4 4 4 3 2 3 3
1 1 0 0 1 1 1 1 2 2 3 4 5 5 4 6 5 4 5 5 4 3 2 1 2 3 3 3 4 3 3 4 4 4 4 4 4 5 4 3 2 3 4
0 1 0 0 1 1 1 1 2 3 2 2 3 4 4 5 5 4 4 3 2 3 2 3 3 4 4 4 4 4 4 4 4 4 4 4 4 4 4 4 4 4 4
1 1 1 1 1 1 1 2 2 2 3 3 3 4 4 3 3 3 2 1 0 1 2 3 4 4 5 5 5 5 5 4 4 4 4 4 4 4 4 4 4 4 4
2 2 1 1 0 0 1 1 1 2 2 3 3 3 3 2 2 1 1 1 2 3 3 4 4 4 5 5 5 5 5 5 4 4 4 5 4 4 4 4 4 5 4
3 4 3 1 1 1 1 1 1 2 2 2 3 3 2 1 1 1 1 2 3 3 4 4 4 4 4 4 5 5 5 4 4 4 4 5 4 5 5 5 4 4 4
3 3 4 2 2 1 1 1 1 2 2 3 4 4 2 1 2 2 2 2 3 4 4 4 4 4 4 4 4 5 5 5 4 4 4 4 4 4 4 4 4 4 4
2 2 2 2 2 2 2 2 2 2 2 3 4 4 3 2 2 3 3 3 4 3 4 4 4 4 4 4 5 5 5 5 5 5 4 4 4 4 4 4 4 4 4
1 2 2 2 2 2 2 2 2 2 3 3 3 4 3 3 3 3 3 4 4 4 3 3 4 4 5 5 5 5 6 6 5 5 5 4 4 3 3 4 5 4 4
1 2 2 2 2 2 2 3 3 3 3 3 3 3 3 3 3 4 4 4 4 4 3 3 4 5 6 5 5 5 5 5 5 5 5 5 4 4 4 4 5 5 5
1 1 2 2 2 2 2 3 3 3 3 3 3 3 3 3 4 4 4 4 5 5 5 4 4 4 6 7 6 6 6 5 4 4 4 3 4 4 4 5 5 5 5
1 1 2 2 2 2 2 2 3 3 4 4 4 4 4 4 4 4 5 5 5 5 5 4 5 6 6 6 7 7 6 5 5 4 3 3 3 4 4 4 5 5 5
Wind_Direction
194 198 198 199 196 194 208 219 218 212 198 198 203 199 201 200 194 189 207 200 207 237 246 240 257 255 254 255 237 228 229 219 249 283 285 300 294 289 295 269 258 252 253
197 189 196 199 188 194 213 217 208 202 199 200 198 202 213 203 190 188 205 208 214 234 244 243 263 257 255 260 243 243 242 227 229 269 289 297 282 282 285 279 274 260 254
186 181 187 198 202 213 220 216 203 195 197 196 190 200 214 211 202 204 206 213 221 232 238 241 253 249 251 250 243 244 249 245 230 249 280 286 285 306 307 294 281 281 266
184 190 203 215 217 221 218 213 204 195 198 203 202 208 212 211 209 211 211 216 229 237 238 243 248 240 241 242 241 245 247 245 240 248 276 286 284 297 292 288 297 293 287
184 207 224 223 216 215 207 209 207 202 211 208 206 215 218 213 218 212 216 224 229 242 251 252 251 242 235 231 237 235 226 225 234 249 261 268 275 279 266 255 275 298 286
184 206 220 210 209 214 215 209 205 210 211 205 211 217 224 232 230 216 209 224 229 238 255 266 262 252 248 239 234 223 206 208 221 230 242 250 255 247 243 245 255 290 287
182 197 203 209 213 219 221 211 209 216 209 212 220 220 225 235 227 217 210 213 232 243 249 261 270 272 249 253 252 239 233 228 216 214 231 243 245 238 223 232 232 240 253
190 205 216 220 230 222 207 214 218 208 207 215 221 227 228 240 224 215 210 210 231 244 244 244 252 263 267 251 252 259 261 256 238 229 233 241 243 232 215 226 236 249 267
208 222 221 217 220 218 213 220 216 204 217 220 213 219 223 244 236 225 210 221 242 258 257 250 244 252 267 236 228 257 274 276 258 241 243 253 255 241 205 191 211 232 265
242 242 228 212 211 218 219 216 211 204 221 228 231 222 216 232 234 223 212 222 247 265 272 262 247 252 258 224 222 241 264 276 283 287 277 276 268 253 217 210 213 226 247
256 256 248 230 218 217 213 208 200 199 204 220 237 246 235 239 245 233 216 221 237 253 265 271 268 259 252 240 227 238 253 264 275 271 277 282 280 263 243 232 223 219 229
288 276 264 244 233 222 193 197 190 186 194 220 244 278 277 261 249 245 230 229 232 235 251 261 267 265 253 247 244 260 264 262 268 271 271 273 271 269 262 250 242 237 238
309 300 284 262 239 176 166 180 182 187 203 230 238 256 276 282 272 257 242 238 235 233 251 255 259 263 262 268 269 264 256 255 257 262 266 268 265 265 266 261 250 245 248
227 282 310 323 309 340 176 198 195 205 213 228 237 249 262 273 277 275 266 254 247 246 261 273 271 273 267 277 294 280 255 243 241 254 266 273 278 271 260 255 252 243 247
24 347 1 179 192 246 319 244 225 223 213 217 235 236 246 262 262 247 238 249 240 233 229 269 298 305 292 285 280 276 270 260 254 262 266 272 273 271 269 258 246 242 240
51 331 293 213 222 218 228 307 300 250 244 229 228 230 247 250 261 252 240 243 242 205 169 233 251 252 254 258 263 268 263 258 259 261 261 263 266 267 272 269 251 244 251
321 304 315 227 210 228 235 248 294 325 326 295 271 257 246 260 269 263 249 235 219 163 188 239 249 252 254 254 255 259 263 261 256 255 258 260 262 265 268 269 265 259 259
327 329 337 286 245 245 252 256 260 272 295 310 308 295 281 272 274 273 246 141 358 204 240 249 253 255 257 259 260 260 263 263 259 257 258 260 258 259 264 265 263 263 263
337 336 335 328 303 249 260 267 278 280 279 290 311 323 317 313 328 316 161 195 242 254 254 258 259 257 259 262 263 261 261 262 260 256 258 260 259 259 260 262 262 261 262
354 358 357 348 338 347 338 328 321 312 312 312 307 303 319 6 343 318 258 248 259 267 266 265 266 265 265 267 267 266 266 265 265 261 263 262 257 254 258 260 259 261 259
3 3 11 13 360 359 360 347 332 328 330 323 315 315 298 292 292 295 293 279 272 276 279 278 278 279 277 277 273 271 269 268 265 266 265 261 259 260 261 257 254 254 258
11 7 10 13 11 14 8 359 354 350 337 326 322 329 326 309 298 297 295 291 286 279 277 274 275 275 274 274 275 274 272 272 272 267 262 261 262 262 261 259 264 264 258
9 4 357 357 3 5 4 357 347 339 332 329 326 326 328 320 314 309 303 301 303 300 292 284 283 289 289 282 276 269 265 264 262 256 251 252 255 258 258 258 259 262 260
349 346 341 346 353 356 351 343 341 340 337 331 325 320 315 313 314 311 309 307 304 304 305 300 291 295 301 300 291 284 280 280 275 259 250 246 249 249 246 251 258 257 254
341 338 339 341 342 339 339 338 340 343 341 333 326 323 321 320 317 313 311 310 308 306 308 307 305 304 310 309 305 302 305 299 286 274 261 250 250 252 251 252 255 260 257
351 342 332 331 335 331 329 327 326 328 328 325 323 323 321 319 317 317 318 316 312 310 310 311 314 314 315 313 309 313 315 314 307 295 273 254 250 253 255 255 256 256 255
Height
1516 1517 1518 1519 1520 1520 1520 1521 1522 1523 1523 1524 1524 1524 1524 1524 1525 1525 1525 1526 1526 1526 1525 1525 1525 1525 1525 1525 1524 1524 1523 1523 1521 1520 1520 1520 1520 1519 1519 1519 1518 1518 1518
1514 1514 1515 1516 1516 1517 1518 1518 1519 1520 1521 1521 1521 1522 1522 1522 1522 1522 1523 1523 1523 1523 1522 1522 1522 1522 1522 1522 1521 1521 1520 1520 1519 1518 1517 1517 1517 1516 1516 1515 1515 1514 1514
1511 1511 1512 1513 1513 1514 1514 1515 1516 1517 1517 1518 1518 1519 1519 1519 1519 1520 1520 1520 1520 1520 1519 1519 1519 1519 1519 1519 1519 1518 1517 1517 1516 1515 1514 1514 1514 1513 1512 1512 1512 1511 1511
1508 1508 1509 1509 1510 1511 1511 1512 1513 1513 1514 1515 1515 1515 1516 1516 1517 1517 1517 1517 1517 1516 1516 1516 1516 1516 1516 1516 1516 1515 1515 1514 1513 1512 1512 1511 1510 1510 1509 1508 1508 1507 1507
1506 1506 1506 1507 1508 1508 1509 1509 1510 1510 1511 1512 1512 1512 1513 1513 1513 1514 1514 1514 1514 1513 1513 1513 1513 1513 1513 1513 1513 1512 1512 1511 1510 1509 1508 1507 1507 1506 1506 1505 1504 1504 1504
1503 1504 1504 1504 1505 1506 1506 1506 1507 1507 1508 1509 1509 1509 1510 1510 1510 1511 1511 1511 1510 1510 1510 1510 1510 1510 1510 1510 1509 1509 1509 1508 1507 1506 1505 1504 1503 1503 1502 1502 1501 1501 1500
1501 1502 1502 1502 1502 1503 1503 1503 1503 1504 1505 1505 1505 1506 1506 1507 1507 1507 1507 1507 1507 1507 1507 1507 1507 1507 1506 1506 1505 1505 1505 1504 1504 1503 1502 1501 1500 1500 1499 1498 1498 1498 1497
1499 1499 1500 1500 1500 1500 1500 1500 1501 1501 1502 1502 1502 1503 1503 1503 1503 1504 1504 1504 1503 1503 1503 1503 1503 1503 1503 1502 1502 1501 1501 1500 1500 1499 1498 1498 1497 1497 1496 1496 1495 1495 1494
1496 1497 1497 1497 1497 1497 1497 1497 1498 1498 1499 1499 1499 1499 1500 1500 1500 1500 1501 1501 1500 1500 1500 1499 1499 1499 1499 1498 1498 1497 1496 1496 1496 1495 1495 1494 1493 1493 1493 1492 1492 1491 1490
1494 1494 1495 1495 1494 1494 1494 1494 1495 1495 1496 1496 1496 1496 1496 1496 1497 1497 1498 1498 1497 1497 1496 1496 1496 1495 1495 1494 1494 1493 1492 1492 1491 1491 1490 1490 1489 1489 1489 1488 1488 1487 1486
1492 1492 1492 1492 1491 1491 1491 1491 1492 1492 1492 1493 1493 1493 1493 1494 1494 1494 1494 1494 1494 1493 1493 1492 1492 1492 1491 1491 1490 1489 1488 1488 1487 1487 1486 1485 1485 1485 1484 1484 1484 1484 1483
1489 1489 1488 1488 1488 1489 1489 1489 1489 1489 1489 1490 1490 1490 1490 1490 1491 1491 1491 1491 1490 1490 1489 1489 1488 1488 1488 1487 1486 1485 1485 1484 1483 1482 1481 1481 1480 1480 1480 1480 1480 1479 1479
1486 1486 1485 1485 1486 1486 1486 1486 1486 1486 1486 1487 1487 1486 1487 1487 1487 1488 1488 1487 1487 1486 1485 1485 1484 1484 1483 1483 1482 1481 1481 1480 1479 1478 1477 1476 1476 1475 1475 1474 1474 1474 1474
1484 1484 1483 1483 1483 1483 1483 1483 1483 1483 1483 1483 1484 1483 1483 1483 1483 1483 1484 1483 1483 1482 1481 1481 1480 1479 1479 1478 1477 1477 1476 1475 1474 1473 1472 1472 1471 1471 1470 1469 1469 1468 1467
1482 1481 1481 1481 1481 1481 1481 1481 1481 1481 1481 1480 1480 1480 1479 1479 1479 1480 1479 1479 1478 1478 1477 1476 1475 1474 1473 1473 1472 1472 1471 1470 1469 1468 1468 1467 1466 1466 1465 1464 1463 1463 1462
1480 1479 1479 1479 1479 1479 1479 1479 1478 1478 1478 1478 1477 1477 1476 1476 1475 1475 1475 1475 1474 1473 1472 1471 1470 1469 1468 1467 1467 1466 1466 1465 1464 1464 1463 1462 1461 1460 1460 1459 1458 1457 1456
1479 1477 1477 1476 1476 1476 1476 1475 1475 1475 1474 1474 1474 1473 1472 1471 1471 1471 1471 1470 1469 1468 1467 1466 1465 1465 1464 1463 1462 1461 1460 1460 1459 1458 1457 1456 1456 1455 1454 1453 1453 1452 1451
1477 1476 1475 1474 1474 1473 1473 1473 1472 1471 1470 1469 1470 1469 1469 1468 1468 1467 1466 1466 1464 1463 1462 1462 1461 1460 1459 1458 1457 1456 1455 1455 1454 1453 1452 1451 1450 1450 1449 1448 1447 1447 1446
1475 1474 1473 1472 1472 1471 1470 1470 1469 1468 1467 1466 1466 1466 1465 1465 1464 1463 1462 1461 1460 1459 1458 1458 1457 1456 1455 1454 1453 1452 1451 1449 1448 1447 1446 1446 1445 1444 1443 1442 1442 1442 1441
1474 1473 1472 1471 1470 1469 1468 1467 1466 1466 1464 1463 1463 1462 1462 1461 1460 1459 1458 1458 1457 1456 1455 1454 1452 1451 1450 1449 1447 1446 1445 1444 1443 1441 1441 1440 1440 1439 1438 1437 1437 1436 1436
1473 1472 1471 1470 1468 1467 1466 1465 1465 1463 1462 1461 1460 1460 1459 1458 1457 1456 1455 1454 1453 1452 1451 1450 1448 1447 1445 1444 1443 1441 1440 1439 1438 1436 1436 1435 1434 1434 1433 1432 1432 1431 1431
1473 1472 1470 1469 1468 1466 1465 1464 1463 1462 1461 1460 1458 1457 1456 1455 1454 1453 1452 1450 1449 1449 1447 1446 1444 1443 1441 1440 1438 1437 1435 1434 1433 1432 1431 1430 1430 1429 1428 1427 1427 1426 1426
1472 1471 1470 1469 1467 1466 1464 1463 1462 1461 1460 1458 1457 1455 1454 1452 1451 1450 1448 1447 1446 1445 1444 1442 1440 1439 1437 1436 1434 1433 1431 1429 1429 1428 1427 1425 1425 1424 1423 1423 1423 1422 1421
1471 1470 1469 1468 1466 1465 1464 1462 1461 1460 1458 1456 1455 1453 1451 1450 1448 1447 1445 1444 1443 1442 1440 1438 1436 1434 1433 1432 1430 1428 1427 1425 1424 1423 1422 1421 1420 1419 1418 1418 1418 1417 1417
1470 1468 1467 1466 1465 1463 1462 1461 1460 1458 1456 1454 1453 1451 1449 1447 1445 1444 1442 1441 1439 1438 1436 1434 1432 1430 1429 1427 1426 1424 1422 1421 1420 1418 1417 1416 1415 1415 1414 1413 1413 1413 1412
1468 1467 1466 1465 1463 1462 1461 1459 1458 1456 1454 1452 1451 1449 1447 1445 1443 1441 1439 1438 1436 1434 1432 1430 1428 1426 1424 1423 1421 1420 1418 1417 1415 1414 1412 1411 1410 1409 1409 1408 1407 1407 1407